Overview Statistics Trail Chart Weather Telemetry Raw packets
 

This is the latest recevied weather packets stored in our database for station/object G4KVI. If no packets are shown the sender has not sent any weather packets the latest 10 day(s).

<< 81 82 83 84 85 86 87 >>
Time Temp. Humidity Pressure Rain* Wind** Luminosity Snow
1788004206 17.78° C 93% 1002.2 hPa 4.06 mm - 142 W/m² -
1788003906 17.78° C 93% 1002.3 hPa 4.57 mm - 114 W/m² -
1788003606 17.78° C 93% 1002.7 hPa 4.32 mm - 66 W/m² -
1788003306 17.78° C 93% 1002.8 hPa 3.56 mm - 29 W/m² -
1788003006 18.33° C 93% 1002.7 hPa 2.79 mm - 69 W/m² -
1788002706 18.33° C 93% 1002.8 hPa 2.03 mm - 138 W/m² -
1788002406 18.33° C 93% 1002.8 hPa 2.29 mm - 156 W/m² -
1788002106 18.33° C 94% 1003 hPa 2.29 mm - 210 W/m² -
1788001806 18.33° C 93% 1003.2 hPa 2.29 mm - 135 W/m² -
1788001506 18.33° C 94% 1003.1 hPa 2.29 mm - 132 W/m² -
1788001206 17.78° C 94% 1003.1 hPa 2.03 mm - 182 W/m² -
1788000906 17.78° C 93% 1003.4 hPa 1.27 mm - 185 W/m² -
1788000606 18.33° C 94% 1003.3 hPa 1.02 mm - 192 W/m² -
1788000306 18.33° C 94% 1003 hPa 0.51 mm - 132 W/m² -
1788000006 18.33° C 94% 1003.5 hPa 0.25 mm - 113 W/m² -
1787999706 17.78° C 94% 1003.4 hPa 0.25 mm - 84 W/m² -
1787999406 17.78° C 94% 1003.3 hPa 0.25 mm - 80 W/m² -
1787999106 17.78° C 94% 1003.4 hPa 0.25 mm - 102 W/m² -
1787998806 17.78° C 94% 1003.5 hPa 0 mm - 111 W/m² -
1787998506 17.78° C 94% 1003.5 hPa 0 mm - 125 W/m² -
1787998219 17.78° C 94% 1003.7 hPa 0 mm - 292 W/m² -
1787997906 17.78° C 94% 1003.6 hPa 0.25 mm - 175 W/m² -
1787997606 17.78° C 93% 1003.6 hPa 0.25 mm - 168 W/m² -
1787997306 17.78° C 93% 1003.6 hPa 0.25 mm - 155 W/m² -
1787997006 17.78° C 93% 1003.7 hPa 0.25 mm - 173 W/m² -

* Rain latest hour (hover to see other rain measurements)
** Current wind speed in m/s (hover to see current wind gust speed)